Main page
METAR-TAF:

METAR-TAF

Airports :

Camiri Airport

Camiri, Bolivia

latitude: 20-00S, longitude: 063-32W, elevation: 798 m

Current weather observation

The report was made 4 hours and 58 minutes ago, at 22:00 UTC
Calm wind
Temperature 32°C
Humidity 43%
Pressure 1009 hPa
Visibility 10 km or more
Few clouds at a height of 3600 ft

METAR: SLCA 202200Z 00000KT 9999 FEW036 32/18 Q1009

Time: 22:58 (02:58 UTC)


TAF: missing

Weather observations and forecasts of more than 4000 airports (METAR and TAF reports).

The available stations are represented by yellow and red dots on the map.

Hover mouse over dot to see the name of the station.

Then click to see weather observations and forecasts.

To change the map : click on the green buttons with a black cross to zoom in, on the green button with a dash to zoom out, or on the green arrows for adjacent maps.


METAR-TAF: